Home   Weather   Merseburg   Past weeks

Flag for Germany Past Weather in Merseburg, Saxony-Anhalt, Germany — Yesterday and Last 2 Weeks

48 °F

Passing clouds.

Feels Like: 45 °F
Forecast: 46 / 53 °F
Wind: 8 mph from Southwest

Location: Leipzig-Schkeuditz

Current Time: Oct 28, 2016 at 6:54:30 AM

Latest Report: Oct 28, 2016 at 6:20 AM

Visibility: N/A

Pressure: 30.42 "Hg

Humidity: 87%

Dew Point: 45 °F

Location of MerseburgLocation

Past Weather in Merseburg — Graph


Merseburg Temperature Yesterday

Maximum temperature yesterday: 54 °F (at 1:20 PM)
Minimum temperature yesterday: 41 °F (at 5:20 AM)
Average temperature yesterday: 48 °F

High & Low Weather Summary for the Past Weeks

High64 °F (Oct 16, 2:20 PM)100% (Oct 16, 7:20 AM)30.48 "Hg (Oct 16, 7:20 AM)
Low32 °F (Oct 23, 3:50 AM)52% (Oct 16, 4:20 PM)29.77 "Hg (Oct 15, 1:50 AM)
Average48 °F90%30.07 "Hg
* Reported Oct 13 5:20 AM — Oct 28 5:20 AM, Merseburg, Weather by CustomWeather, © 2016

Note: Actual official high and low records may vary slightly from our data, if they occured in-between our weather recording intervals... More about our weather records


Merseburg Weather History for the Previous 24 Hours

Scroll right to see more
Time TempWeatherWind HumidityBarometerVisibility
5:20 AM
Fri, Oct 28
48 °FPassing clouds.9 mph87%30.42 "HgN/A
4:50 AM48 °FPassing clouds.10 mph87%30.42 "HgN/A
4:20 AM48 °FPassing clouds.10 mph87%30.42 "HgN/A
3:50 AM46 °FPassing clouds.9 mph87%30.45 "HgN/A
3:20 AM46 °FPassing clouds.8 mph87%30.45 "HgN/A
2:50 AM46 °FPassing clouds.8 mph87%30.45 "HgN/A
2:20 AM46 °FPassing clouds.8 mph93%30.45 "HgN/A
1:50 AM46 °FPassing clouds.9 mph93%30.48 "HgN/A
1:20 AM45 °FPassing clouds.12 mph100%30.45 "HgN/A
12:50 AM45 °FClear.9 mph93%30.45 "Hg10 mi
12:20 AM46 °FClear.7 mph93%30.48 "Hg10 mi
11:50 PM
Thu, Oct 27
48 °FClear.10 mph94%30.45 "Hg10 mi
11:20 PM50 °FClear.7 mph88%30.48 "Hg6 mi
10:50 PM50 °FClear.8 mph94%30.48 "Hg5 mi
10:20 PM52 °FPartly cloudy.7 mph88%30.48 "Hg6 mi
9:50 PM50 °FClear.7 mph94%30.48 "Hg10 mi
9:20 PM50 °FClear.7 mph94%30.48 "Hg6 mi
8:50 PM50 °FClear.7 mph94%30.48 "Hg6 mi
8:20 PM48 °FClear.7 mph94%30.48 "Hg5 mi
7:50 PM48 °FClear.7 mph94%30.48 "Hg10 mi
7:20 PM50 °FClear.7 mph94%30.48 "Hg10 mi
6:50 PM52 °FClear.7 mph88%30.48 "Hg10 mi
6:20 PM52 °FClear.7 mph88%30.48 "Hg10 mi
5:50 PM52 °FPartly sunny.8 mph88%30.48 "HgN/A
5:20 PM52 °FBroken clouds.8 mph88%30.45 "HgN/A
4:50 PM54 °FMostly cloudy.8 mph88%30.45 "HgN/A
4:20 PM54 °FPartly sunny.9 mph88%30.45 "HgN/A
3:50 PM54 °FBroken clouds.9 mph88%30.45 "HgN/A
3:20 PM54 °FBroken clouds.9 mph82%30.45 "HgN/A
2:50 PM54 °FBroken clouds.9 mph82%30.45 "HgN/A
2:20 PM54 °FPartly sunny.12 mph82%30.45 "Hg5 mi
1:50 PM54 °FBroken clouds.10 mph88%30.45 "Hg5 mi
1:20 PM54 °FPartly sunny.10 mph88%30.45 "Hg4 mi
12:50 PM52 °FPartly sunny.7 mph88%30.45 "Hg4 mi
12:20 PM50 °FFog.8 mph94%30.45 "Hg3 mi
11:50 AM50 °FLight rain. Fog.9 mph94%30.45 "Hg2 mi
11:20 AM48 °FDrizzle. Fog.8 mph94%30.45 "Hg2 mi
10:50 AM46 °FDrizzle. Fog.8 mph100%30.45 "Hg2 mi
10:20 AM46 °FFog.7 mph93%30.45 "Hg2 mi
9:50 AM46 °FLight rain. Fog.8 mph93%30.45 "Hg2 mi
9:20 AM46 °FLight rain. Low clouds.8 mph87%30.45 "Hg2 mi
8:50 AM46 °FOvercast.8 mph87%30.42 "Hg4 mi
8:20 AM45 °FMostly cloudy.8 mph93%30.42 "Hg4 mi
7:50 AM45 °FFog.8 mph93%30.42 "Hg2 mi
7:20 AM45 °FFog.7 mph93%30.42 "Hg2 mi
6:50 AM45 °FFog.7 mph93%30.39 "Hg2 mi
6:20 AM45 °FFog.7 mph93%30.42 "Hg2 mi
Weather by CustomWeather, © 2016

See weather overviewHow to use our weather pages